Flag for China Weather past 2 weeks in Chongqing, Chongqing Municipality, China

Now
39 °F

Light rain. Fog.


Feels Like: 39 °F
Forecast: 42 / 48 °F
Wind: No wind

Location: Chongqing Airport

Current Time: Jan 30, 2015 at 6:55:01 AM

Latest Report: Jan 30, 2015 at 6:00 AM


Visibility: 2 mi

Pressure: 30.30 "Hg

Humidity: 93%

Dew point: 37 °F

Location of ChongqingLocation

Historic Weather in Chongqing — Graph

°F

Chongqing temperature yesterday

Maximum temperature yesterday: 43 °F (at 12:00 AM)
Minimum temperature yesterday: 39 °F (at 7:00 AM)
Average temperature yesterday: 41 °F

Past Weeks' High & Low Weather Summary

 TemperatureHumidityPressure
High64 °F (Jan 22, 3:00 PM)94% (Jan 27, 7:00 AM)30.48 "Hg (Jan 27, 7:00 AM)
Low39 °F (Jan 29, 7:00 AM)37% (Jan 22, 3:00 PM)29.74 "Hg (Jan 23, 6:00 PM)
Average50 °F76%30.14 "Hg
* Reported Jan 15 6:00 AM — Jan 30 6:00 AM, Chongqing, Weather by CustomWeather, © 2014

Note: Actual official high and low records may vary slightly from our data, if they occured in-between our weather recording intervals... More about our weather records

Advertising

Chongqing weather history for previous 24 hours

 ConditionsComfort  
Time TempWeatherWind HumidityBarometerVisibility
6:00 AM
Jan 30
39 °FLight rain. Fog.No wind93%30.30 "Hg2 mi
5:00 AM39 °FLight rain. Fog.3 mph93%30.27 "Hg1 mi
4:00 AM39 °FLight rain. Fog.3 mph93%30.30 "Hg1 mi
3:00 AM39 °FLight rain. Fog.6 mph93%30.30 "Hg1 mi
2:00 AM39 °FLight rain. Fog.6 mph93%30.30 "Hg1 mi
1:00 AM39 °FLight rain. Fog.6 mph93%30.33 "Hg3 mi
12:00 AM39 °FLight rain. Mostly cloudy.3 mph93%30.33 "Hg5 mi
11:00 PM
Jan 29
39 °FLight rain. Mostly cloudy.6 mph93%30.33 "Hg5 mi
10:00 PM39 °FFog.3 mph93%30.33 "Hg3 mi
9:00 PM39 °FLight rain. Fog.3 mph93%30.30 "Hg1 mi
8:00 PM39 °FLight rain. Fog.6 mph93%30.30 "Hg1 mi
7:00 PM39 °FLight rain. Fog.6 mph93%30.27 "Hg2 mi
6:00 PM39 °FLight rain. More clouds than sun.8 mph93%30.24 "Hg4 mi
5:00 PM39 °FLight rain. More clouds than sun.8 mph93%30.24 "Hg4 mi
4:00 PM41 °FLight rain. Fog.8 mph87%30.21 "Hg3 mi
3:00 PM41 °FScattered clouds.8 mph87%30.24 "HgN/A
2:00 PM41 °FScattered clouds.6 mph87%30.24 "HgN/A
1:00 PM41 °FLight rain. Scattered clouds.6 mph87%30.27 "HgN/A
12:00 PM41 °FLight rain. More clouds than sun.8 mph87%30.30 "HgN/A
11:00 AM41 °FLight rain. More clouds than sun.8 mph87%30.30 "HgN/A
10:00 AM39 °FLight rain. More clouds than sun.8 mph93%30.27 "HgN/A
9:00 AM39 °FLight rain. More clouds than sun.8 mph93%30.24 "HgN/A
8:00 AM39 °FLight rain. Fog.10 mph93%30.21 "Hg3 mi
7:00 AM39 °FLight rain. Mostly cloudy.10 mph93%30.18 "Hg5 mi
6:00 AM41 °FLight rain. Mostly cloudy.10 mph93%30.15 "Hg4 mi
Weather by CustomWeather, © 2014

See weather overviewHow to use our weather pages